When you browse on this site, cookies collect data to enhance your experience and personalize the content and advertising you see.
Visit our Privacy Policy to learn more. By continuing to use the site, you agree to this use of cookies and data.
  • In Austria
  • List of Countries
  • For 7 days
  • Water Temperature
  • Satellite Maps
  • Weather Map
  • News
  • Weather Widgets
  • user-avatar
    Login

    Hourly Weather Pezlevo

    Today, 18 February, Monday

    Time Temperature Precipitation Wind Pressure Humidity
    00:00 -6°C° 0.1 mm 7 mps 742 mmHg 79%
    01:00 -7°C° 0.1 mm 7 mps 743 mmHg 79%
    02:00 -7°C° 0.1 mm 7 mps 744 mmHg 79%
    03:00 -8°C° 0 mm 7 mps 745 mmHg 79%
    04:00 -8°C° 0 mm 6 mps 746 mmHg 80%
    05:00 -9°C° 0 mm 6 mps 747 mmHg 80%
    06:00 -10°C° 0 mm 6 mps 748 mmHg 81%
    07:00 -10°C° 0 mm 5 mps 748 mmHg 82%
    08:00 -11°C° 0 mm 5 mps 749 mmHg 83%
    09:00 -10°C° 0 mm 5 mps 750 mmHg 83%
    10:00 -10°C° 0 mm 5 mps 751 mmHg 82%
    11:00 -10°C° 0 mm 5 mps 751 mmHg 82%
    12:00 -10°C° 0 mm 5 mps 752 mmHg 81%
    13:00 -9°C° 0 mm 4 mps 752 mmHg 81%
    14:00 -8°C° 0 mm 4 mps 752 mmHg 80%
    15:00 -8°C° 0 mm 3 mps 753 mmHg 83%
    16:00 -9°C° 0 mm 3 mps 753 mmHg 86%
    17:00 -10°C° 0 mm 2 mps 753 mmHg 89%
    18:00 -10°C° 0 mm 2 mps 754 mmHg 90%
    19:00 -10°C° 0 mm 1 mps 754 mmHg 91%
    20:00 -10°C° 0 mm 1 mps 754 mmHg 92%
    21:00 -10°C° 0 mm 1 mps 754 mmHg 91%
    22:00 -10°C° 0 mm 1 mps 754 mmHg 90%
    23:00 -12°C° 0 mm 2 mps 753 mmHg 90%

    Tomorrow, 19 February, Tuesday

    Time Temperature Precipitation Wind Pressure Humidity
    00:00 -10°C° 0 mm 2 mps 753 mmHg 89%
    01:00 -12°C° 0 mm 3 mps 753 mmHg 87%
    02:00 -12°C° 0 mm 3 mps 752 mmHg 86%
    03:00 -11°C° 0 mm 4 mps 751 mmHg 83%
    04:00 -11°C° 0 mm 5 mps 750 mmHg 80%
    05:00 -10°C° 0 mm 6 mps 750 mmHg 78%
    06:00 -10°C° 0 mm 6 mps 749 mmHg 78%
    07:00 -10°C° 0 mm 5 mps 748 mmHg 78%
    08:00 -10°C° 0 mm 5 mps 748 mmHg 79%
    09:00 -7°C° 0 mm 5 mps 747 mmHg 79%
    10:00 -6°C° 0 mm 5 mps 747 mmHg 79%
    11:00 -4°C° 0 mm 5 mps 746 mmHg 79%
    12:00 -4°C° 0 mm 5 mps 746 mmHg 81%
    13:00 -2°C° 0 mm 4 mps 746 mmHg 84%
    14:00 -1°C° 0 mm 4 mps 745 mmHg 86%
    15:00 -2°C° 0 mm 4 mps 745 mmHg 87%
    16:00 -2°C° 0 mm 4 mps 744 mmHg 87%
    17:00 -1°C° 0 mm 3 mps 744 mmHg 88%
    18:00 -3°C° 0 mm 4 mps 743 mmHg 88%
    19:00 -3°C° 0 mm 4 mps 743 mmHg 87%
    20:00 -4°C° 0 mm 4 mps 742 mmHg 86%
    21:00 -4°C° 0 mm 4 mps 742 mmHg 87%
    22:00 -4°C° 0 mm 4 mps 741 mmHg 88%
    23:00 -5°C° 0 mm 5 mps 741 mmHg 88%

    Day after tomorrow, 20 February, Wednesday

    Time Temperature Precipitation Wind Pressure Humidity
    00:00 -5°C° 0 mm 5 mps 740 mmHg 89%
    01:00 -4°C° 0 mm 5 mps 740 mmHg 89%
    02:00 -4°C° 0 mm 5 mps 739 mmHg 89%
    03:00 -2°C° 0.1 mm 5 mps 738 mmHg 89%
    04:00 -2°C° 0.1 mm 5 mps 737 mmHg 89%
    05:00 -2°C° 0.1 mm 5 mps 737 mmHg 89%
    06:00 -1°C° 0.2 mm 5 mps 736 mmHg 90%
    07:00 -1°C° 0.2 mm 5 mps 736 mmHg 90%
    08:00 -1°C° 0.2 mm 5 mps 735 mmHg 90%
    09:00 0°C° 0.2 mm 5 mps 735 mmHg 91%
    10:00 0°C° 0.2 mm 5 mps 735 mmHg 92%
    11:00 0°C° 0.2 mm 5 mps 735 mmHg 93%
    12:00 0°C° 0 mm 5 mps 735 mmHg 93%
    13:00 0°C° 0 mm 5 mps 735 mmHg 93%
    14:00 0°C° 0 mm 4 mps 735 mmHg 93%
    15:00 0°C° 0 mm 4 mps 735 mmHg 91%
    16:00 0°C° 0 mm 5 mps 734 mmHg 89%
    17:00 0°C° 0 mm 5 mps 734 mmHg 88%
    18:00 0°C° 0.2 mm 5 mps 734 mmHg 88%
    19:00 0°C° 0.2 mm 5 mps 734 mmHg 88%
    20:00 0°C° 0.2 mm 5 mps 734 mmHg 89%
    21:00 -1°C° 0.3 mm 4 mps 734 mmHg 88%
    22:00 -2°C° 0.3 mm 4 mps 734 mmHg 87%
    23:00 -2°C° 0.3 mm 3 mps 734 mmHg 86%

    21 February, Thursday

    Time Temperature Precipitation Wind Pressure Humidity
    00:00 -4°C° 0 mm 3 mps 734 mmHg 87%
    01:00 -5°C° 0 mm 3 mps 734 mmHg 89%
    02:00 -6°C° 0 mm 3 mps 734 mmHg 91%
    03:00 -6°C° 0.1 mm 3 mps 734 mmHg 92%
    04:00 -5°C° 0.1 mm 2 mps 734 mmHg 93%
    05:00 -6°C° 0.1 mm 2 mps 734 mmHg 94%
    06:00 -5°C° 0.1 mm 2 mps 734 mmHg 94%
    07:00 -5°C° 0.1 mm 2 mps 734 mmHg 94%
    08:00 -5°C° 0.1 mm 2 mps 735 mmHg 93%
    09:00 -4°C° 0 mm 2 mps 735 mmHg 91%
    10:00 -4°C° 0 mm 2 mps 736 mmHg 89%
    11:00 -3°C° 0 mm 2 mps 736 mmHg 87%
    12:00 -5°C° 0.3 mm 4 mps 737 mmHg 87%
    13:00 -6°C° 0.3 mm 5 mps 738 mmHg 87%
    14:00 -7°C° 0.3 mm 7 mps 739 mmHg 87%
    15:00 -8°C° 0.2 mm 7 mps 740 mmHg 86%
    16:00 -9°C° 0.2 mm 7 mps 741 mmHg 85%
    17:00 -10°C° 0.2 mm 6 mps 742 mmHg 84%
    18:00 -11°C° 0.1 mm 7 mps 743 mmHg 84%
    19:00 -12°C° 0.1 mm 7 mps 744 mmHg 83%
    20:00 -12°C° 0.1 mm 7 mps 745 mmHg 83%
    21:00 -12°C° 0.1 mm 6 mps 746 mmHg 83%
    22:00 -12°C° 0.1 mm 6 mps 747 mmHg 82%
    23:00 -14°C° 0.1 mm 6 mps 747 mmHg 82%

    22 February, Friday

    Time Temperature Precipitation Wind Pressure Humidity
    00:00 -14°C° 0.1 mm 6 mps 748 mmHg 81%
    01:00 -15°C° 0.1 mm 7 mps 749 mmHg 81%
    02:00 -15°C° 0.1 mm 7 mps 750 mmHg 80%
    03:00 -17°C° 0 mm 7 mps 751 mmHg 78%
    04:00 -16°C° 0 mm 6 mps 752 mmHg 75%
    05:00 -17°C° 0 mm 6 mps 753 mmHg 73%
    06:00 -16°C° 0 mm 6 mps 753 mmHg 73%
    07:00 -16°C° 0 mm 6 mps 754 mmHg 72%
    08:00 -16°C° 0 mm 6 mps 755 mmHg 72%
    09:00 -15°C° 0 mm 6 mps 756 mmHg 73%
    10:00 -13°C° 0 mm 5 mps 757 mmHg 73%
    11:00 -12°C° 0 mm 5 mps 757 mmHg 73%
    12:00 -11°C° 0 mm 5 mps 757 mmHg 73%
    13:00 -11°C° 0 mm 5 mps 758 mmHg 73%
    14:00 -10°C° 0 mm 5 mps 758 mmHg 72%
    15:00 -11°C° 0 mm 5 mps 758 mmHg 75%
    16:00 -10°C° 0 mm 4 mps 759 mmHg 78%
    17:00 -10°C° 0 mm 4 mps 759 mmHg 80%
    18:00 -10°C° 0 mm 4 mps 760 mmHg 83%
    19:00 -9°C° 0 mm 3 mps 760 mmHg 85%
    20:00 -9°C° 0 mm 3 mps 760 mmHg 88%
    21:00 -10°C° 0 mm 3 mps 761 mmHg 89%
    22:00 -10°C° 0 mm 3 mps 761 mmHg 90%
    23:00 -10°C° 0 mm 2 mps 761 mmHg 92%

    23 February, Saturday

    Time Temperature Precipitation Wind Pressure Humidity
    00:00 -10°C° 0 mm 2 mps 761 mmHg 93%
    01:00 -10°C° 0 mm 2 mps 761 mmHg 94%
    02:00 -12°C° 0 mm 2 mps 760 mmHg 95%
    03:00 -12°C° 0 mm 2 mps 760 mmHg 95%
    04:00 -12°C° 0 mm 2 mps 760 mmHg 95%
    05:00 -12°C° 0 mm 2 mps 759 mmHg 95%
    06:00 -12°C° 0 mm 2 mps 759 mmHg 94%
    07:00 -12°C° 0 mm 2 mps 758 mmHg 92%
    08:00 -10°C° 0 mm 2 mps 758 mmHg 91%
    09:00 -10°C° 0 mm 3 mps 757 mmHg 90%
    10:00 -9°C° 0 mm 3 mps 756 mmHg 88%
    11:00 -9°C° 0 mm 3 mps 756 mmHg 87%
    12:00 -8°C° 0.2 mm 3 mps 755 mmHg 88%
    13:00 -9°C° 0.2 mm 4 mps 755 mmHg 89%
    14:00 -8°C° 0.2 mm 4 mps 754 mmHg 90%
    15:00 -7°C° 0.1 mm 3 mps 754 mmHg 91%
    16:00 -7°C° 0.1 mm 3 mps 754 mmHg 92%
    17:00 -7°C° 0.1 mm 3 mps 753 mmHg 92%
    18:00 -6°C° 0 mm 2 mps 753 mmHg 93%
    19:00 -6°C° 0 mm 2 mps 753 mmHg 94%
    20:00 -6°C° 0 mm 2 mps 753 mmHg 95%
    21:00 -5°C° 0 mm 2 mps 753 mmHg 96%
    22:00 -5°C° 0 mm 2 mps 753 mmHg 96%
    23:00 -5°C° 0 mm 2 mps 753 mmHg 96%
    Show more